Volver al catálogo

STARLINK-31345

ActivoComunicacionesVLEO
NORAD 58941·PAYLOAD·🇺🇸 United States

Lanzado Feb 10, 2024 desde Vandenberg Space Force Base

Loading…

Próximos Pases (próximas 24 horas)

TLE

ActualizadoSource: CelesTrak SupGP

Época: Sep 15, 2026, 02:27 UTC

1 58941C 24027L   26258.10256944 -.00002964  00000+0 -87601-4 0  2582
2 58941  53.1586 148.6338 0001336  80.2585 330.6973 15.34386085    16

Sigue STARLINK-31345 en tiempo real con AllMySat

Download on the App Store